Location: Florence
(33.9745°N, 118.2481°W)
Time: 20:44:02
(UTC+00:00)

Lacrosse 5 rocket - Pass Details

Date: 23 March 2023
Orbit: 456 x 605 km, 57.0° (Epoch: 06 June)

Event Time Altitude Azimuth Distance (km) Brightness Sun altitude
Exits shadow 13:03:57 16° 252° (WSW) 1,281 2.5 -10.9°
Maximum altitude 13:04:31 17° 240° (WSW) 1,254 2.6 -10.8°
Drops below altitude 10° 13:06:51 10° 199° (SSW) 1,591 3.4 -10.3°
Sets 13:09:30 0° 178° (S) 2,453 4.6 -9.8°
